Regional Weather Roundup
Issued by NWS

Home | Current Version | Previous Version | Graphics & Text | Print | Product List | Glossary On
Versions: 1 2 3 4 5 6 7 8 9 10 11 12 13 14 15 16 17 18 19 20 21 22 23 24 25 26 27 28 29 30 31 32 33 34 35 36 37 38 39 40 41 42 43 44 45 46 47 48 49 50
000
ASUS43 KOAX 290510
RWRNE

WEATHER ROUNDUP FOR NEBRASKA
NATIONAL WEATHER SERVICE OMAHA NE
1200 AM CDT SUN MAR 29 2015

NOTES: SATELLITE DATA IS BEING USED TO AUGMENT CLOUD COVER ABOVE
       12000 FEET.
       "FAIR" INDICATES FEW OR NO CLOUDS BELOW 12,000 FEET WITH NO
       SIGNIFICANT WEATHER AND/OR OBSTRUCTIONS TO VISIBILITY.

  * THESE STATIONS DO NOT REPORT WEATHER SUCH AS RAIN...SNOW OR FOG.

NEZ001>004-019>022-054>056-290600-
NEBRASKA PANHANDLE

CITY           SKY/WX    TMP DP  RH WIND       PRES   REMARKS
SCOTTSBLUFF    CLEAR     59  33  37 NW21G31   29.91R
ALLIANCE       CLEAR     59  32  36 NW20G29   29.84R
CHADRON        CLEAR     61  36  39 NW20G30   29.87R
KIMBALL        MOCLDY    61  26  26 W17       29.93R
SIDNEY         MOCLDY    63  28  26 W18       29.89R
$$

NEZ057>060-069>072-079>082-290600-
SOUTHWEST NEBRASKA

CITY           SKY/WX    TMP DP  RH WIND       PRES   REMARKS
NORTH PLATTE   CLOUDY    63  36  36 S10       29.77F
IMPERIAL       CLOUDY    69  24  18 W9        29.80R
LEXINGTON      PTCLDY    58  39  50 N8        29.87R
MCCOOK         PTCLDY    62  39  42 SW13G22   29.81R
OGALLALA       MOCLDY    57  29  35 W12       29.77S
$$

NEZ005>010-023>029-035>040-094-290600-
NORTH CENTRAL NEBRASKA

CITY           SKY/WX    TMP DP  RH WIND       PRES   REMARKS
VALENTINE      CLOUDY    65  41  41 N22G31    29.78R
AINSWORTH      CLOUDY    58  37  44 SW7       29.75R
BROKEN BOW     PTCLDY    55  38  52 S22G36    29.74F
O`NEILL        MOCLDY    52  36  53 S20G32    29.73R
ORD            CLEAR     50  34  54 S15       29.78S
THEDFORD       CLOUDY    60  38  44 CALM      29.72R
$$

NEZ041-046>049-061>064-073>077-083>087-290600-
SOUTH CENTRAL NEBRASKA

CITY           SKY/WX    TMP DP  RH WIND       PRES   REMARKS
GRAND ISLAND   CLEAR     48  35  60 S23G32    29.82F
AURORA         CLEAR     46  34  62 S18G25    29.83F
HASTINGS       CLEAR     50  36  58 S18G29    29.81F
HEBRON         CLEAR     47  34  60 S14       29.89F
HOLDREGE       CLEAR     53  37  54 S17G25    29.80S
KEARNEY *      CLEAR     52  36  54 S20G25    29.81S
YORK           PTCLDY    45  36  70 S20G25    29.85F
$$

NEZ011>018-030>034-042>045-290600-
NORTHEAST NEBRASKA

CITY           SKY/WX    TMP DP  RH WIND       PRES   REMARKS
NORFOLK        CLEAR     45  34  65 S18G30    29.79F
ALBION         PTCLDY    46  33  59 S15G21    29.80F
BLAIR          CLEAR     45  32  60 S18G25    29.91F
COLUMBUS *     CLEAR     45  30  57 S16G24    29.86F
FREMONT        CLEAR     45  32  61 SE22G28   29.89F
TEKAMAH        CLEAR     44  31  60 SE25G33   29.90F
WAYNE          CLEAR     44  32  64 S26G33    29.81F
$$

NEZ050>053-065>068-078-088>093-290600-
SOUTHEAST NEBRASKA

CITY           SKY/WX    TMP DP  RH WIND       PRES   REMARKS
LINCOLN        CLEAR     45  33  63 S21G31    29.91F
OMAHA EPPLEY   CLEAR     43  32  65 SE22      29.95F
BEATRICE       CLEAR     44  33  65 SE18G25   29.92F
FALLS CITY     CLEAR     41  32  70 SE14      30.00F
NEBRASKA CITY  CLEAR     43  30  61 S18G24    29.97F
PLATTSMOUTH    CLEAR     41  30  65 SE14      29.95F
$$

NEZ044-045-051>053-067-290600-
OMAHA AREA

CITY           SKY/WX    TMP DP  RH WIND       PRES   REMARKS
OMAHA EPPLEY   CLEAR     43  32  65 SE22      29.95F
BLAIR          CLEAR     45  32  60 S18G25    29.91F
FREMONT        CLEAR     45  32  61 SE22G28   29.89F
MILLARD        CLEAR     44  32  63 SE13G23   29.94F
OFFUTT AFB     CLEAR     41  31  69 SE13      29.95F
PLATTSMOUTH    CLEAR     41  30  65 SE14      29.95F
WAHOO          FAIR      43  32  63 S20G25    29.91F
$$


USA.gov is the U.S. government's official web portal to all federal, state and local government web resources and services.